Location: Fort Wayne
(41.1310°N, 85.1290°W)
Time: 14:04:15
(UTC-04:00)

Meteor 2-9 Rocket - Visible Passes

Search period start: 05 May 2016 00:00
Search period end: 15 May 2016 00:00
Orbit: 791 x 896 km, 81.3° (Epoch: 04 May)

Date Brightness Start Highest point End Pass type
(mag) Time Alt. Az. Time Alt. Az. Time Alt. Az.
05 May 4.7 00:31:18 10° N 00:35:36 51° NNE 00:35:36 51° NNE visible
05 May 6.3 02:15:40 10° NW 02:17:28 15° WNW 02:17:28 15° WNW visible
06 May 4.7 00:17:14 10° N 00:21:44 49° NE 00:21:44 49° NE visible
06 May 6.2 02:01:13 10° NW 02:03:36 17° WNW 02:03:36 17° WNW visible
07 May 4.7 00:03:12 10° N 00:07:53 45° ENE 00:07:53 45° ENE visible
07 May 6.0 01:46:50 10° NW 01:49:45 20° WNW 01:49:45 20° WNW visible
07 May 4.8 23:49:09 10° N 23:54:02 41° ENE 23:54:02 41° ENE visible
08 May 5.9 01:32:30 10° NW 01:35:54 23° WNW 01:35:54 23° WNW visible
08 May 4.9 23:35:07 10° N 23:40:09 37° ENE 23:40:12 37° ENE visible
09 May 5.7 01:18:13 10° NNW 01:22:04 27° WNW 01:22:04 27° WNW visible
09 May 5.1 23:21:07 10° N 23:26:00 32° ENE 23:26:23 32° E visible
10 May 5.4 01:03:57 10° NNW 01:08:15 31° W 01:08:15 31° W visible
10 May 5.2 23:07:08 10° NNE 23:11:51 29° ENE 23:12:35 28° E visible
11 May 5.2 00:49:42 10° NNW 00:54:27 35° W 00:54:27 35° W visible
11 May 5.4 22:53:10 10° NNE 22:57:42 26° ENE 22:58:48 24° E visible
12 May 5.0 00:35:29 10° NNW 00:40:34 40° W 00:40:40 40° W visible
12 May 5.5 22:39:14 10° NNE 22:43:32 23° ENE 22:45:02 21° E visible
13 May 4.8 00:21:17 10° NNW 00:26:30 46° W 00:26:54 45° WSW visible
13 May 5.7 22:25:19 10° NNE 22:29:22 20° ENE 22:31:17 17° E visible
14 May 4.6 00:07:06 10° NNW 00:12:26 52° W 00:13:09 49° WSW visible
14 May 5.8 22:11:27 10° NNE 22:15:12 18° ENE 22:17:33 14° E visible
